TimeEST,TemperatureF,Dew PointF,Humidity,Sea Level PressureIn,VisibilityMPH,Wind Direction,Wind SpeedMPH,Gust SpeedMPH,PrecipitationIn,Events,Conditions,WindDirDegrees,DateUTC
1:53 AM,39.9,26.1,58,29.89,10.0,West,12.7,18.4,N/A,,Overcast,280,2013-01-01 06:53:00
2:53 AM,39.0,27.0,62,29.87,10.0,West,11.5,-,N/A,,Scattered Clouds,280,2013-01-01 07:53:00
3:53 AM,39.0,27.0,62,29.88,10.0,West,11.5,-,N/A,,Overcast,270,2013-01-01 08:53:00
4:53 AM,39.0,27.0,62,29.88,10.0,West,12.7,-,N/A,,Overcast,260,2013-01-01 09:53:00
5:53 AM,39.0,27.0,62,29.87,10.0,West,16.1,20.7,N/A,,Overcast,260,2013-01-01 10:53:00
6:53 AM,39.0,26.1,60,29.88,10.0,West,10.4,-,N/A,,Mostly Cloudy,270,2013-01-01 11:53:00
7:53 AM,39.0,26.1,60,29.88,10.0,West,10.4,-,N/A,,Scattered Clouds,270,2013-01-01 12:53:00
9:53 AM,39.9,27.0,60,29.90,10.0,West,9.2,-,N/A,,Overcast,270,2013-01-01 14:53:00
10:53 AM,39.9,26.1,58,29.89,10.0,WNW,9.2,25.3,N/A,,Overcast,290,2013-01-01 15:53:00
11:53 AM,39.0,27.0,62,29.86,10.0,WNW,10.4,20.7,N/A,,Overcast,290,2013-01-01 16:53:00
12:53 PM,37.0,27.0,67,29.86,10.0,NNW,10.4,-,N/A,,Overcast,330,2013-01-01 17:53:00
2:53 PM,37.9,23.0,55,29.85,10.0,WNW,10.4,17.3,N/A,,Overcast,290,2013-01-01 19:53:00
3:53 PM,37.9,21.0,51,29.87,10.0,WNW,10.4,-,N/A,,Scattered Clouds,300,2013-01-01 20:53:00
4:53 PM,37.0,19.9,50,29.88,10.0,NNW,10.4,-,N/A,,Partly Cloudy,330,2013-01-01 21:53:00
5:53 PM,35.1,18.0,50,29.91,10.0,NNW,9.2,18.4,N/A,,Clear,330,2013-01-01 22:53:00
6:53 PM,34.0,14.0,44,29.93,10.0,NNW,13.8,-,N/A,,Clear,340,2013-01-01 23:53:00
7:53 PM,32.0,14.0,48,29.94,10.0,NNW,10.4,-,N/A,,Clear,330,2013-01-02 00:53:00
8:53 PM,30.9,12.0,46,29.96,10.0,NNW,17.3,24.2,N/A,,Clear,330,2013-01-02 01:53:00
9:53 PM,30.0,10.9,45,29.98,10.0,NNW,15.0,23.0,N/A,,Clear,330,2013-01-02 02:53:00
10:53 PM,28.0,10.0,47,30.00,10.0,NW,8.1,20.7,N/A,,Clear,320,2013-01-02 03:53:00
11:53 PM,27.0,8.1,45,30.00,10.0,NW,9.2,-,N/A,,Clear,320,2013-01-02 04:53:00